Roatan, Honduras

5:44 PM CST on June 28, 2017 (GMT -0600)
Roatan International

Weather History for MHRO - January, 2013

Change the Weather History Date:

Thursday, January 3, 2013

  Actual Average Record
Temperature  
Mean Temperature 78 °F -  
Max Temperature 84 °F 81 °F 87 °F (1999)
Min Temperature 73 °F 72 °F 60 °F (2011)
Cooling Degree Days 14    
Growing Degree Days 28 (Base 50)    
Moisture  
Dew Point 72 °F    
Average Humidity 74    
Maximum Humidity 83    
Minimum Humidity 61    
Precipitation  
Precipitation 0.01 in - - ()
Sea Level Pressure  
Sea Level Pressure 29.97 in    
Wind  
Wind Speed 6 mph ()    
Max Wind Speed 10 mph    
Max Gust Speed -    
Visibility 7.1 miles    
Events      
Averages and records for this station are not official NWS values.
T = Trace of Precipitation, MM = Missing Value Source: Averaged Metar Reports

Daily Weather History Graph

Daily Weather History Graph

Search for Another Location

Airport or City:

Trip Planner

Search our weather history database for the weather conditions in past years. The results will help you decide how hot, cold, wet, or windy it might be!

Date:

Astronomy

Jan. 03, 2013 Rise Set
Actual Time 6:15 AM CST 5:26 PM CST
Civil Twilight 5:51 AM CST 5:49 PM CST
Nautical Twilight 5:24 AM CST 6:16 PM CST
Astronomical Twilight 4:58 AM CST 6:43 PM CST
Moon 10:57 PM CST (1/3) 10:24 AM CST (1/3)
Length of Visible Light 11h 58m
Length of Day
11h 11m
Waning Gibbous, 65% of the Moon is Illuminated
Jan 3
Waning Gibbous
Jan 4
Last Quarter
Jan 11
New
Jan 18
First Quarter
Jan 26
Full

Hourly Weather History & Observations

Time (CST) Temp. Heat Index Dew Point Humidity Pressure Visibility Wind Dir Wind Speed Gust Speed Precip Events Conditions
6:00 AM 77 °F - 71 °F 78% 29.96 in 16 mi NE 3.5 mph - -   Scattered Clouds
6:00 AM 77.0 °F - 71.6 °F 83% 29.95 in 6.2 mi NE 3.5 mph - N/A   Scattered Clouds
7:00 AM 77.0 °F - 71.6 °F 83% 29.95 in 6.2 mi NE 6.9 mph - N/A   Scattered Clouds
8:00 AM 78.8 °F - 71.6 °F 78% 29.98 in 6.2 mi ENE 5.8 mph - N/A   Mostly Cloudy
9:00 AM 81 °F - 72 °F 66% 30.01 in 14 mi NE 9.2 mph - -   Scattered Clouds
9:00 AM 80.6 °F 84.6 °F 71.6 °F 74% 30.01 in 6.2 mi NE 9.2 mph - N/A   Mostly Cloudy
10:00 AM 84.2 °F 89.6 °F 71.6 °F 66% 30.01 in 6.2 mi East 8.1 mph - N/A   Mostly Cloudy
11:00 AM 84.2 °F 90.9 °F 73.4 °F 70% 29.98 in 6.2 mi NNE 4.6 mph - N/A   Mostly Cloudy
12:00 PM 84 °F - 72 °F 61% 29.97 in 3 mi NNE 5.8 mph - -   Partly Cloudy
12:00 PM 84.2 °F 90.9 °F 73.4 °F 70% 29.95 in 3.1 mi NNE 5.8 mph - N/A   Mostly Cloudy
1:00 PM 84.2 °F 90.9 °F 73.4 °F 70% 29.92 in 6.2 mi East 5.8 mph - N/A   Mostly Cloudy
2:00 PM 82.4 °F 87.2 °F 71.6 °F 70% 29.92 in 6.2 mi East 6.9 mph - N/A   Mostly Cloudy
3:00 PM 83 °F - 72 °F 61% 29.91 in 10 mi East 8.1 mph - -   Haze
3:00 PM 82.4 °F 87.2 °F 71.6 °F 70% 29.92 in 6.2 mi East 8.1 mph - N/A   Mostly Cloudy
4:00 PM 80.6 °F 85.4 °F 73.4 °F 79% 29.92 in 6.2 mi East 8.1 mph - N/A   Mostly Cloudy
5:00 PM 80.6 °F 85.4 °F 73.4 °F 79% 29.92 in 6.2 mi East 4.6 mph - N/A   Mostly Cloudy
6:00 PM 79 °F - 73 °F 76% 29.96 in 10 mi East 10.4 mph - -   Haze
6:00 PM 78.8 °F - 73.4 °F 83% 29.95 in 6.2 mi East 10.4 mph - N/A   Mostly Cloudy
7:00 PM 78.8 °F - 71.6 °F 78% 29.98 in 6.2 mi NE 5.8 mph - N/A   Mostly Cloudy
8:00 PM 78.8 °F - 73.4 °F 83% 30.21 in 6.2 mi ENE 5.8 mph - N/A   Scattered Clouds